This is the latest recevied weather packets stored in our database for station/object SP8PUB-10. If no packets are shown the sender has not sent any weather packets the latest 10 day(s).
| Time | Temp. | Humidity | Pressure | Rain* | Wind** | Luminosity | Snow |
|---|---|---|---|---|---|---|---|
| 1778154043 | 25° C | 52% | 1012 hPa | - | - | - | - |
| 1778153143 | 25.56° C | 52% | 1012.1 hPa | - | - | - | - |
| 1778152243 | 25.56° C | 52% | 1012 hPa | - | - | - | - |
| 1778151343 | 25° C | 53% | 1011.9 hPa | - | - | - | - |
| 1778150442 | 25.56° C | 52% | 1012 hPa | - | - | - | - |
| 1778149542 | 25° C | 52% | 1011.9 hPa | - | - | - | - |
| 1778148642 | 25° C | 52% | 1011.7 hPa | - | - | - | - |
| 1778147742 | 25° C | 52% | 1011.7 hPa | - | - | - | - |
| 1778146842 | 24.44° C | 54% | 1011.6 hPa | - | - | - | - |
| 1778145942 | 24.44° C | 58% | 1011.6 hPa | - | - | - | - |
| 1778145042 | 23.89° C | 59% | 1011.5 hPa | - | - | - | - |
| 1778144142 | 22.78° C | 65% | 1011.2 hPa | - | - | - | - |
| 1778143242 | 22.78° C | 66% | 1011.3 hPa | - | - | - | - |
| 1778142341 | 21.11° C | 71% | 1011.2 hPa | - | - | - | - |
| 1778141441 | 20° C | 75% | 1011.3 hPa | - | - | - | - |
| 1778140541 | 20° C | 76% | 1011.3 hPa | - | - | - | - |
| 1778139641 | 20° C | 76% | 1011.4 hPa | - | - | - | - |
| 1778138741 | 20° C | 76% | 1011.1 hPa | - | - | - | - |
| 1778137841 | 18.89° C | 79% | 1011 hPa | - | - | - | - |
| 1778136941 | 18.33° C | 82% | 1011.2 hPa | - | - | - | - |
| 1778136041 | 17.78° C | 85% | 1011 hPa | - | - | - | - |
| 1778135140 | 17.78° C | 86% | 1010.9 hPa | - | - | - | - |
| 1778105596 | 15.56° C | 74% | 1009.2 hPa | - | - | - | - |
| 1778104696 | 16.11° C | 73% | 1009.2 hPa | - | - | - | - |
| 1778103795 | 16.11° C | 71% | 1009.3 hPa | - | - | - | - |
* Rain since midnight (hover to see other rain measurements)
** Current wind speed in m/s (hover to see current wind gust speed)